Location: Baggett Branch
(32.6074°N, 97.0167°W)
Time: 11:23:15
(UTC+00:00)

Cosmos 1484 Rocket - Pass Details

Date: 10 February 2026
Orbit: 437 x 465 km, 97.6° (Epoch: 8 March)

Event Time Altitude Azimuth Distance (km) Brightness Sun altitude
Rises 12:20:01 0° 11° (N) 2,511 6.2 -12.2°
Reaches altitude 10° 12:22:04 10° 12° (NNE) 1,632 5.3 -11.8°
Maximum altitude 12:25:35 90° 287° (WNW) 474 2.4 -11.1°
Drops below altitude 10° 12:29:04 10° 193° (SSW) 1,619 5.2 -10.4°
Sets 12:31:06 0° 193° (SSW) 2,489 6.2 -9.9°
